| time (UTC) | temp F | wind direction | speed MPH | gust MPH | rain 1hr in | rain 24hr in | rain mn in | humidity % | barometer mb |
| 20260503034816 | 33 | 56 | 2.0 | 3.0 | 0.00 | 0.03 | 0.00 | 85 | 1011.4 |
| 20260503034324 | 33 | 74 | 1.0 | 3.0 | 0.00 | 0.03 | 0.00 | 85 | 1011.4 |
| 20260503033813 | 33 | 104 | 0.0 | 2.0 | 0.00 | 0.03 | 0.00 | 85 | 1011.5 |
| 20260503033323 | 33 | 109 | 1.0 | 2.0 | 0.00 | 0.03 | 0.00 | 84 | 1011.5 |
| 20260503032831 | 33 | 109 | 1.0 | 2.0 | 0.00 | 0.03 | 0.00 | 84 | 1011.5 |
| 20260503032316 | 33 | 109 | 1.0 | 2.0 | 0.00 | 0.03 | 0.00 | 83 | 1011.5 |
| 20260503031825 | 33 | 109 | 1.0 | 3.0 | 0.00 | 0.03 | 0.00 | 82 | 1011.5 |
| 20260503031335 | 34 | 109 | 1.0 | 3.0 | 0.00 | 0.03 | 0.00 | 83 | 1011.5 |
| 20260503030836 | 34 | 61 | 0.0 | 1.0 | 0.00 | 0.04 | 0.00 | 82 | 1011.5 |
| 20260503030318 | 34 | 61 | 0.0 | 0.0 | 0.00 | 0.04 | 0.00 | 82 | 1011.5 |
| 20260503025828 | 34 | 61 | 0.0 | 2.0 | 0.00 | 0.04 | 0.00 | 81 | 1011.6 |
| 20260503025328 | 34 | 61 | 1.0 | 2.0 | 0.00 | 0.04 | 0.00 | 80 | 1011.5 |
| 20260503024832 | 35 | 61 | 0.0 | 2.0 | 0.00 | 0.04 | 0.00 | 81 | 1011.5 |
| 20260503024320 | 35 | 61 | 0.0 | 2.0 | 0.00 | 0.04 | 0.00 | 81 | 1011.4 |
| 20260503023830 | 35 | 61 | 1.0 | 2.0 | 0.00 | 0.04 | 0.00 | 81 | 1011.4 |
| 20260503023318 | 35 | 31 | 1.0 | 2.0 | 0.00 | 0.04 | 0.00 | 79 | 1011.4 |
| 20260503022826 | 35 | 31 | 0.0 | 1.0 | 0.00 | 0.04 | 0.00 | 78 | 1011.4 |
| 20260503022314 | 36 | 31 | 0.0 | 1.0 | 0.00 | 0.04 | 0.00 | 79 | 1011.4 |
| 20260503021824 | 36 | 31 | 0.0 | 1.0 | 0.00 | 0.04 | 0.00 | 78 | 1011.5 |
| 20260503021313 | 36 | 35 | 0.0 | 1.0 | 0.00 | 0.04 | 0.00 | 77 | 1011.5 |
| 20260503020818 | 36 | 35 | 0.0 | 2.0 | 0.00 | 0.06 | 0.00 | 76 | 1011.5 |
| 20260503020326 | 37 | 35 | 0.0 | 2.0 | 0.00 | 0.06 | 0.00 | 75 | 1011.5 |
| 20260503015815 | 37 | 26 | 0.0 | 2.0 | 0.00 | 0.06 | 0.00 | 74 | 1011.4 |
| 20260503015347 | 38 | 327 | 1.0 | 1.0 | 0.00 | 0.06 | 0.00 | 73 | 1011.5 |
| 20260503014814 | 38 | 327 | 0.0 | 0.0 | 0.00 | 0.06 | 0.00 | 72 | 1011.4 |
| 20260503014322 | 38 | 327 | 0.0 | 0.0 | 0.00 | 0.06 | 0.00 | 71 | 1011.4 |
| 20260503013852 | 39 | 327 | 0.0 | 0.0 | 0.00 | 0.06 | 0.00 | 70 | 1011.4 |
| 20260503013337 | 39 | 327 | 0.0 | 0.0 | 0.00 | 0.06 | 0.00 | 69 | 1011.4 |
| 20260503012825 | 40 | 327 | 0.0 | 0.0 | 0.00 | 0.06 | 0.00 | 68 | 1011.3 |
| 20260503012353 | 41 | 327 | 0.0 | 1.0 | 0.00 | 0.06 | 0.00 | 67 | 1011.3 |
| 20260503011821 | 41 | 327 | 0.0 | 2.0 | 0.00 | 0.06 | 0.00 | 68 | 1011.3 |
| 20260503011330 | 41 | 327 | 1.0 | 2.0 | 0.00 | 0.06 | 0.00 | 67 | 1011.3 |
| 20260503010820 | 42 | 342 | 1.0 | 2.0 | 0.00 | 0.07 | 0.00 | 67 | 1011.2 |
| 20260503010328 | 41 | 345 | 1.0 | 2.0 | 0.00 | 0.07 | 0.00 | 67 | 1011.2 |
| 20260503005831 | 41 | 355 | 0.0 | 3.0 | 0.00 | 0.07 | 0.00 | 67 | 1011.2 |
| 20260503005321 | 41 | 355 | 1.0 | 3.0 | 0.00 | 0.07 | 0.00 | 66 | 1011.2 |
| 20260503004828 | 42 | 343 | 1.0 | 2.0 | 0.00 | 0.07 | 0.00 | 66 | 1011.1 |
| 20260503004317 | 42 | 340 | 1.0 | 5.0 | 0.00 | 0.07 | 0.00 | 67 | 1011.1 |
| 20260503003824 | 42 | 339 | 1.0 | 6.0 | 0.00 | 0.07 | 0.00 | 66 | 1011.0 |
| 20260503003313 | 42 | 332 | 3.0 | 6.0 | 0.00 | 0.07 | 0.00 | 66 | 1011.0 |
| 20260503002821 | 42 | 345 | 2.0 | 4.0 | 0.00 | 0.07 | 0.00 | 66 | 1011.1 |
| 20260503002329 | 42 | 360 | 2.0 | 6.0 | 0.00 | 0.07 | 0.00 | 66 | 1011.0 |
| 20260503001853 | 42 | 339 | 3.0 | 6.0 | 0.00 | 0.07 | 0.00 | 65 | 1010.9 |
| 20260503001320 | 42 | 355 | 3.0 | 8.0 | 0.00 | 0.07 | 0.00 | 65 | 1010.8 |
| 20260503000830 | 43 | 355 | 3.0 | 8.0 | 0.00 | 0.07 | 0.00 | 64 | 1010.9 |
| 20260503000319 | 43 | 11 | 2.0 | 7.0 | 0.00 | 0.07 | 0.00 | 63 | 1010.8 |
| 20260502235826 | 43 | 336 | 2.0 | 6.0 | 0.00 | 0.07 | 0.00 | 63 | 1010.8 |
| 20260502235327 | 43 | 314 | 3.0 | 9.0 | 0.00 | 0.07 | 0.00 | 62 | 1010.7 |
| 20260502234836 | 44 | 281 | 4.0 | 9.0 | 0.00 | 0.07 | 0.00 | 61 | 1010.7 |
| 20260502234316 | 44 | 348 | 5.0 | 8.0 | 0.00 | 0.07 | 0.00 | 61 | 1010.6 |
| 20260502233844 | 44 | 349 | 2.0 | 10.0 | 0.00 | 0.07 | 0.00 | 61 | 1010.7 |
| 20260502233330 | 45 | 310 | 5.0 | 11.0 | 0.00 | 0.07 | 0.00 | 60 | 1010.7 |
| 20260502232817 | 45 | 280 | 3.0 | 11.0 | 0.00 | 0.07 | 0.00 | 59 | 1010.6 |
| 20260502232325 | 45 | 279 | 5.0 | 8.0 | 0.00 | 0.07 | 0.00 | 59 | 1010.6 |
| 20260502231813 | 45 | 297 | 4.0 | 9.0 | 0.00 | 0.07 | 0.00 | 58 | 1010.5 |
| 20260502231341 | 45 | 288 | 5.0 | 10.0 | 0.00 | 0.07 | 0.00 | 58 | 1010.5 |
| 20260502230825 | 45 | 303 | 5.0 | 12.0 | 0.00 | 0.07 | 0.00 | 56 | 1010.4 |
| 20260502230312 | 45 | 280 | 5.0 | 13.0 | 0.00 | 0.07 | 0.00 | 55 | 1010.3 |
| 20260502225823 | 46 | 305 | 8.0 | 12.0 | 0.00 | 0.07 | 0.00 | 55 | 1010.3 |
| 20260502225332 | 46 | 284 | 6.0 | 12.0 | 0.00 | 0.07 | 0.00 | 55 | 1010.4 |
| 20260502224822 | 46 | 360 | 5.0 | 15.0 | 0.00 | 0.07 | 0.00 | 55 | 1010.3 |
| 20260502224332 | 46 | 344 | 4.0 | 12.0 | 0.00 | 0.07 | 0.00 | 55 | 1010.4 |
| 20260502223840 | 46 | 315 | 7.0 | 11.0 | 0.00 | 0.07 | 0.00 | 55 | 1010.3 |
| 20260502223343 | 46 | 299 | 6.0 | 11.0 | 0.00 | 0.07 | 0.00 | 54 | 1010.2 |
| 20260502222831 | 46 | 318 | 7.0 | 11.0 | 0.00 | 0.07 | 0.00 | 53 | 1010.3 |
| 20260502222339 | 46 | 310 | 5.0 | 7.0 | 0.00 | 0.07 | 0.00 | 53 | 1010.3 |
| 20260502221827 | 46 | 333 | 5.0 | 12.0 | 0.00 | 0.07 | 0.00 | 53 | 1010.3 |
| 20260502221335 | 46 | 271 | 6.0 | 13.0 | 0.00 | 0.07 | 0.00 | 53 | 1010.2 |
| 20260502220825 | 46 | 277 | 8.0 | 13.0 | 0.00 | 0.07 | 0.00 | 52 | 1010.2 |
| 20260502220348 | 46 | 284 | 4.0 | 9.0 | 0.00 | 0.07 | 0.00 | 53 | 1010.1 |
| 20260502215837 | 46 | 347 | 5.0 | 10.0 | 0.00 | 0.07 | 0.00 | 52 | 1010.1 |
| 20260502215324 | 46 | 317 | 5.0 | 11.0 | 0.00 | 0.07 | 0.00 | 51 | 1010.1 |
| 20260502214832 | 46 | 327 | 4.0 | 11.0 | 0.00 | 0.07 | 0.00 | 52 | 1010.1 |
| 20260502214315 | 46 | 280 | 4.0 | 10.0 | 0.00 | 0.07 | 0.00 | 51 | 1010.1 |
| 20260502213823 | 46 | 327 | 5.0 | 15.0 | 0.00 | 0.07 | 0.00 | 51 | 1010.1 |
| 20260502213313 | 46 | 263 | 4.0 | 15.0 | 0.00 | 0.07 | 0.00 | 50 | 1010.0 |
| 20260502212829 | 46 | 307 | 5.0 | 11.0 | 0.00 | 0.07 | 0.00 | 50 | 1010.1 |
| 20260502212340 | 46 | 313 | 5.0 | 11.0 | 0.00 | 0.07 | 0.00 | 50 | 1010.0 |
| 20260502211821 | 46 | 291 | 6.0 | 12.0 | 0.00 | 0.07 | 0.00 | 50 | 1009.9 |
| 20260502211329 | 46 | 264 | 4.0 | 15.0 | 0.00 | 0.07 | 0.00 | 50 | 1009.9 |
| 20260502210818 | 46 | 276 | 4.0 | 15.0 | 0.00 | 0.07 | 0.00 | 49 | 1010.0 |
| 20260502210325 | 47 | 301 | 9.0 | 13.0 | 0.00 | 0.07 | 0.00 | 49 | 1009.8 |
| 20260502205850 | 47 | 310 | 6.0 | 11.0 | 0.00 | 0.07 | 0.00 | 49 | 1009.8 |
| 20260502205317 | 47 | 299 | 7.0 | 11.0 | 0.00 | 0.07 | 0.00 | 49 | 1009.8 |
| 20260502204827 | 47 | 322 | 3.0 | 11.0 | 0.00 | 0.07 | 0.00 | 49 | 1009.8 |
| 20260502204315 | 47 | 259 | 5.0 | 12.0 | 0.00 | 0.07 | 0.00 | 48 | 1009.9 |
| 20260502203822 | 47 | 304 | 7.0 | 12.0 | 0.00 | 0.07 | 0.00 | 49 | 1009.9 |
| 20260502203314 | 48 | 316 | 7.0 | 11.0 | 0.00 | 0.07 | 0.00 | 48 | 1009.8 |
| 20260502202822 | 48 | 294 | 4.0 | 10.0 | 0.00 | 0.07 | 0.00 | 48 | 1009.8 |
| 20260502202331 | 47 | 278 | 6.0 | 13.0 | 0.00 | 0.07 | 0.00 | 48 | 1009.9 |
| 20260502201818 | 47 | 246 | 5.0 | 13.0 | 0.00 | 0.07 | 0.00 | 48 | 1009.9 |
| 20260502201324 | 47 | 249 | 6.0 | 13.0 | 0.00 | 0.07 | 0.00 | 47 | 1009.9 |
| 20260502200830 | 47 | 286 | 4.0 | 15.0 | 0.00 | 0.07 | 0.00 | 47 | 1010.1 |
| 20260502200319 | 47 | 263 | 10.0 | 17.0 | 0.00 | 0.07 | 0.00 | 48 | 1010.1 |
| 20260502195828 | 48 | 312 | 11.0 | 20.0 | 0.00 | 0.07 | 0.00 | 47 | 1010.1 |
| 20260502195317 | 48 | 288 | 10.0 | 20.0 | 0.00 | 0.07 | 0.00 | 48 | 1010.1 |
| 20260502194825 | 48 | 282 | 6.0 | 11.0 | 0.00 | 0.07 | 0.00 | 50 | 1010.2 |
| 20260502194315 | 47 | 277 | 6.0 | 12.0 | 0.00 | 0.07 | 0.00 | 50 | 1010.3 |
| 20260502193824 | 48 | 296 | 7.0 | 12.0 | 0.00 | 0.07 | 0.00 | 51 | 1010.4 |
| 20260502193349 | 48 | 311 | 7.0 | 13.0 | 0.00 | 0.07 | 0.00 | 51 | 1010.4 |
| 20260502192838 | 48 | 355 | 10.0 | 17.0 | 0.00 | 0.07 | 0.00 | 49 | 1010.4 |
| 20260502192318 | 48 | 261 | 8.0 | 17.0 | 0.00 | 0.07 | 0.00 | 47 | 1010.5 |
| 20260502191827 | 49 | 288 | 10.0 | 18.0 | 0.00 | 0.07 | 0.00 | 48 | 1010.5 |
| 20260502191316 | 49 | 292 | 9.0 | 18.0 | 0.00 | 0.07 | 0.00 | 47 | 1010.5 |
| 20260502190824 | 48 | 209 | 6.0 | 13.0 | 0.00 | 0.07 | 0.00 | 49 | 1010.4 |
| 20260502190316 | 48 | 320 | 6.0 | 16.0 | 0.00 | 0.07 | 0.00 | 49 | 1010.5 |
| 20260502185822 | 48 | 5 | 8.0 | 16.0 | 0.00 | 0.07 | 0.00 | 50 | 1010.6 |
| 20260502185330 | 48 | 278 | 10.0 | 18.0 | 0.00 | 0.07 | 0.00 | 48 | 1010.5 |
| 20260502184818 | 48 | 273 | 11.0 | 18.0 | 0.00 | 0.07 | 0.00 | 47 | 1010.7 |
| 20260502184319 | 48 | 277 | 6.0 | 11.0 | 0.00 | 0.07 | 0.00 | 50 | 1010.6 |
| 20260502183849 | 48 | 302 | 7.0 | 11.0 | 0.00 | 0.07 | 0.00 | 51 | 1010.6 |
| 20260502183317 | 47 | 345 | 6.0 | 11.0 | 0.00 | 0.07 | 0.00 | 52 | 1010.5 |
| 20260502182827 | 47 | 349 | 6.0 | 15.0 | 0.00 | 0.07 | 0.00 | 51 | 1010.5 |
| 20260502182331 | 47 | 290 | 9.0 | 15.0 | 0.00 | 0.07 | 0.00 | 50 | 1010.6 |
| 20260502181820 | 46 | 299 | 4.0 | 14.0 | 0.00 | 0.07 | 0.00 | 52 | 1010.6 |
| 20260502181326 | 47 | 333 | 9.0 | 14.0 | 0.00 | 0.07 | 0.00 | 51 | 1010.5 |
| 20260502180815 | 47 | 328 | 8.0 | 14.0 | 0.00 | 0.07 | 0.00 | 51 | 1010.5 |
| 20260502180323 | 47 | 342 | 9.0 | 15.0 | 0.00 | 0.07 | 0.00 | 51 | 1010.6 |
| 20260502170328 | 48 | 360 | 10.0 | 16.0 | 0.00 | 0.07 | 0.00 | 50 | 1010.5 |
| 20260502164332 | 47 | 283 | 11.0 | 19.0 | 0.00 | 0.07 | 0.00 | 50 | 1010.6 |
| 20260502163817 | 47 | 311 | 10.0 | 18.0 | 0.00 | 0.07 | 0.00 | 51 | 1010.7 |
| 20260502163344 | 47 | 313 | 12.0 | 18.0 | 0.00 | 0.07 | 0.00 | 52 | 1010.8 |
| 20260502162831 | 47 | 258 | 7.0 | 13.0 | 0.00 | 0.07 | 0.00 | 53 | 1010.6 |
| 20260502162319 | 47 | 290 | 9.0 | 17.0 | 0.00 | 0.07 | 0.00 | 53 | 1010.7 |
| 20260502161826 | 46 | 302 | 10.0 | 17.0 | 0.00 | 0.07 | 0.00 | 52 | 1010.7 |
| 20260502161314 | 46 | 293 | 11.0 | 17.0 | 0.00 | 0.07 | 0.00 | 53 | 1010.7 |
| 20260502160824 | 46 | 308 | 10.0 | 20.0 | 0.00 | 0.07 | 0.00 | 53 | 1010.7 |
| 20260502160328 | 46 | 305 | 13.0 | 20.0 | 0.00 | 0.07 | 0.00 | 52 | 1010.7 |
| 20260502152322 | 45 | 286 | 7.0 | 12.0 | 0.00 | 0.07 | 0.00 | 63 | 1010.9 |
| 20260502151829 | 45 | 306 | 6.0 | 13.0 | 0.00 | 0.07 | 0.00 | 66 | 1010.9 |
| 20260502151318 | 44 | 313 | 9.0 | 13.0 | 0.00 | 0.07 | 0.00 | 63 | 1011.0 |
| 20260502150827 | 45 | 22 | 6.0 | 12.0 | 0.00 | 0.07 | 0.00 | 64 | 1010.9 |
| 20260502150316 | 45 | 348 | 9.0 | 12.0 | 0.00 | 0.07 | 0.00 | 63 | 1010.8 |
| 20260502130322 | 42 | 323 | 3.0 | 8.0 | 0.00 | 0.07 | 0.00 | 81 | 1011.1 |
| 20260502123321 | 41 | 309 | 3.0 | 7.0 | 0.00 | 0.07 | 0.00 | 85 | 1011.0 |
| 20260502122832 | 41 | 336 | 3.0 | 7.0 | 0.00 | 0.07 | 0.00 | 85 | 1011.0 |
| 20260502122337 | 41 | 332 | 2.0 | 7.0 | 0.00 | 0.07 | 0.00 | 86 | 1010.9 |
| 20260502121823 | 41 | 336 | 2.0 | 7.0 | 0.00 | 0.07 | 0.00 | 85 | 1010.9 |
| 20260502121330 | 41 | 299 | 4.0 | 12.0 | 0.00 | 0.07 | 0.00 | 85 | 1010.9 |
| 20260502120819 | 41 | 306 | 4.0 | 12.0 | 0.00 | 0.07 | 0.00 | 85 | 1011.0 |
| 20260502120326 | 41 | 330 | 5.0 | 7.0 | 0.00 | 0.07 | 0.00 | 86 | 1011.1 |
| 20260502115815 | 41 | 308 | 3.0 | 6.0 | 0.00 | 0.07 | 0.00 | 87 | 1011.1 |
| 20260502115322 | 41 | 264 | 3.0 | 6.0 | 0.00 | 0.07 | 0.00 | 87 | 1011.0 |
| 20260502114827 | 41 | 296 | 3.0 | 6.0 | 0.00 | 0.07 | 0.00 | 87 | 1011.0 |
| 20260502114335 | 41 | 285 | 4.0 | 6.0 | 0.00 | 0.07 | 0.00 | 87 | 1011.0 |
| 20260502113841 | 41 | 279 | 2.0 | 4.0 | 0.00 | 0.07 | 0.00 | 88 | 1011.0 |
| 20260502113350 | 41 | 336 | 2.0 | 8.0 | 0.00 | 0.07 | 0.00 | 87 | 1010.9 |
| 20260502112839 | 40 | 317 | 2.0 | 8.0 | 0.00 | 0.07 | 0.00 | 87 | 1010.9 |
| 20260502112326 | 40 | 279 | 3.0 | 6.0 | 0.00 | 0.07 | 0.00 | 87 | 1011.0 |
| 20260502111830 | 40 | 328 | 3.0 | 6.0 | 0.00 | 0.07 | 0.00 | 87 | 1011.0 |
| 20260502111324 | 40 | 283 | 3.0 | 5.0 | 0.00 | 0.07 | 0.00 | 92 | 1011.0 |
| 20260502110813 | 40 | 294 | 2.0 | 5.0 | 0.00 | 0.07 | 0.00 | 88 | 1011.0 |
| 20260502110321 | 40 | 321 | 2.0 | 4.0 | 0.00 | 0.07 | 0.00 | 87 | 1010.8 |
| 20260502105831 | 40 | 291 | 1.0 | 4.0 | 0.00 | 0.07 | 0.00 | 87 | 1010.7 |
| 20260502105332 | 40 | 332 | 2.0 | 4.0 | 0.00 | 0.07 | 0.00 | 88 | 1010.6 |
| 20260502104820 | 40 | 334 | 1.0 | 2.0 | 0.00 | 0.07 | 0.00 | 88 | 1010.6 |
| 20260502104326 | 40 | 334 | 0.0 | 2.0 | 0.00 | 0.07 | 0.00 | 88 | 1010.5 |
| 20260502103813 | 40 | 334 | 1.0 | 3.0 | 0.00 | 0.07 | 0.00 | 88 | 1010.6 |
| 20260502103322 | 40 | 334 | 1.0 | 3.0 | 0.00 | 0.07 | 0.00 | 88 | 1010.6 |
| 20260502102850 | 40 | 340 | 1.0 | 2.0 | 0.00 | 0.07 | 0.00 | 88 | 1010.6 |
| 20260502102317 | 40 | 340 | 0.0 | 2.0 | 0.00 | 0.07 | 0.00 | 89 | 1010.5 |
| 20260502101825 | 40 | 340 | 0.0 | 3.0 | 0.00 | 0.07 | 0.00 | 89 | 1010.5 |
| 20260502101334 | 40 | 339 | 0.0 | 3.0 | 0.00 | 0.07 | 0.00 | 89 | 1010.4 |
| 20260502100818 | 40 | 340 | 1.0 | 2.0 | 0.00 | 0.07 | 0.00 | 89 | 1010.4 |
| 20260502100320 | 40 | 336 | 2.0 | 2.0 | 0.00 | 0.07 | 0.00 | 89 | 1010.4 |
| 20260502091318 | 40 | 338 | 0.0 | 3.0 | 0.00 | 0.07 | 0.00 | 90 | 1009.9 |
| 20260502090828 | 40 | 23 | 1.0 | 3.0 | 0.00 | 0.07 | 0.00 | 90 | 1009.8 |
| 20260502090316 | 40 | 18 | 2.0 | 5.0 | 0.00 | 0.07 | 0.00 | 90 | 1009.7 |
| 20260502071323 | 40 | 26 | 2.0 | 3.0 | 0.00 | 0.07 | 0.00 | 91 | 1009.3 |
| 20260502070832 | 40 | 28 | 1.0 | 3.0 | 0.00 | 0.07 | 0.00 | 91 | 1009.6 |
| 20260502070316 | 40 | 22 | 2.0 | 5.0 | 0.00 | 0.07 | 0.00 | 91 | 1009.5 |
| 20260502065826 | 40 | 22 | 2.0 | 5.0 | 0.00 | 0.07 | 0.00 | 91 | 1009.4 |
| 20260502065332 | 40 | 12 | 3.0 | 5.0 | 0.00 | 0.07 | 0.00 | 91 | 1009.5 |
| 20260502064822 | 40 | 350 | 2.0 | 6.0 | 0.00 | 0.07 | 0.00 | 91 | 1009.6 |
| 20260502064330 | 40 | 24 | 4.0 | 8.0 | 0.00 | 0.07 | 0.00 | 91 | 1009.5 |
| 20260502063820 | 40 | 12 | 4.0 | 8.0 | 0.00 | 0.07 | 0.00 | 91 | 1009.2 |
| 20260502063329 | 41 | 25 | 5.0 | 10.0 | 0.00 | 0.07 | 0.00 | 91 | 1009.4 |
| 20260502062816 | 41 | 5 | 6.0 | 12.0 | 0.00 | 0.07 | 0.00 | 91 | 1009.3 |
| 20260502062322 | 41 | 17 | 6.0 | 13.0 | 0.00 | 0.07 | 0.00 | 90 | 1009.3 |
| 20260502061831 | 42 | 5 | 6.0 | 15.0 | 0.00 | 0.07 | 0.00 | 90 | 1009.3 |
| 20260502061323 | 43 | 360 | 7.0 | 15.0 | 0.00 | 0.07 | 0.00 | 89 | 1009.3 |
| 20260502060830 | 44 | 320 | 9.0 | 13.0 | 0.00 | 0.07 | 0.00 | 91 | 1009.2 |
| 20260502060320 | 44 | 235 | 3.0 | 5.0 | 0.00 | 0.07 | 0.00 | 91 | 1009.1 |
| 20260502055830 | 44 | 275 | 1.0 | 3.0 | 0.00 | 0.07 | 0.00 | 91 | 1009.0 |
| 20260502055316 | 44 | 271 | 0.0 | 3.0 | 0.00 | 0.07 | 0.00 | 91 | 1009.0 |
| 20260502054824 | 44 | 268 | 1.0 | 3.0 | 0.00 | 0.07 | 0.00 | 91 | 1008.9 |
| 20260502054348 | 44 | 211 | 2.0 | 3.0 | 0.00 | 0.07 | 0.00 | 91 | 1009.0 |
| 20260502053816 | 44 | 200 | 0.0 | 2.0 | 0.00 | 0.07 | 0.00 | 91 | 1009.1 |
| 20260502053323 | 44 | 207 | 1.0 | 3.0 | 0.00 | 0.07 | 0.00 | 91 | 1009.1 |
| 20260502052813 | 44 | 207 | 2.0 | 5.0 | 0.00 | 0.07 | 0.00 | 91 | 1009.2 |
| 20260502052323 | 44 | 191 | 2.0 | 5.0 | 0.00 | 0.07 | 0.00 | 91 | 1009.4 |
| 20260502051830 | 44 | 193 | 3.0 | 6.0 | 0.00 | 0.07 | 0.00 | 91 | 1009.4 |
| 20260502051319 | 44 | 189 | 3.0 | 6.0 | 0.00 | 0.07 | 0.00 | 90 | 1009.3 |
| 20260502050844 | 44 | 160 | 4.0 | 6.0 | 0.00 | 0.07 | 0.00 | 90 | 1009.4 |
| 20260502050330 | 44 | 200 | 3.0 | 5.0 | 0.00 | 0.07 | 0.00 | 90 | 1009.4 |
| 20260502045814 | 44 | 201 | 3.0 | 5.0 | 0.00 | 0.07 | 0.00 | 90 | 1009.4 |
| 20260502045343 | 44 | 195 | 3.0 | 4.0 | 0.00 | 0.07 | 0.00 | 90 | 1009.3 |
| 20260502044830 | 44 | 199 | 2.0 | 3.0 | 0.00 | 0.07 | 0.00 | 90 | 1009.2 |
| 20260502044319 | 44 | 199 | 2.0 | 4.0 | 0.00 | 0.07 | 0.00 | 90 | 1009.3 |
| 20260502043849 | 44 | 193 | 1.0 | 6.0 | 0.00 | 0.07 | 0.07 | 90 | 1009.3 |
| 20260502043315 | 44 | 214 | 4.0 | 6.0 | 0.00 | 0.07 | 0.07 | 90 | 1009.2 |
| 20260502042824 | 44 | 219 | 3.0 | 5.0 | 0.01 | 0.07 | 0.07 | 90 | 1009.1 |
| 20260502042316 | 44 | 219 | 3.0 | 4.0 | 0.01 | 0.07 | 0.07 | 90 | 1009.3 |
| 20260502041823 | 44 | 210 | 2.0 | 6.0 | 0.02 | 0.07 | 0.07 | 90 | 1009.4 |
| 20260502041313 | 44 | 218 | 2.0 | 7.0 | 0.03 | 0.07 | 0.07 | 90 | 1009.4 |
| 20260502040821 | 44 | 211 | 3.0 | 7.0 | 0.03 | 0.07 | 0.07 | 90 | 1009.4 |
| 20260502040330 | 44 | 210 | 3.0 | 5.0 | 0.03 | 0.07 | 0.07 | 91 | 1009.3 |
| 20260502035832 | 44 | 261 | 3.0 | 6.0 | 0.03 | 0.07 | 0.07 | 91 | 1009.4 |
| 20260502035317 | 44 | 234 | 2.0 | 4.0 | 0.03 | 0.07 | 0.07 | 91 | 1009.6 |